Weather History for KMNM - December, 2013

Change the Weather History Date:

Friday, December 27, 2013

  Actual Average Record
Temperature  
Mean Temperature 23 °F -  
Max Temperature 32 °F 26 °F 44 °F (2008)
Min Temperature 14 °F 9 °F -14 °F (1996)
Degree Days  
Heating Degree Days 42    
Moisture  
Dew Point 19 °F    
Average Humidity 84    
Maximum Humidity 93    
Minimum Humidity 68    
Precipitation  
Precipitation 0.00 in - - ()
Sea Level Pressure  
Sea Level Pressure 30.04 in    
Wind  
Wind Speed 4 mph (SW)    
Max Wind Speed 18 mph    
Max Gust Speed 25 mph    
Visibility 8 miles    
Events      
Averages and records for this station are not official NWS values.
T = Trace of Precipitation, MM = Missing Value Source: NWS Daily Summary

Daily Weather History Graph

Daily Weather History Graph

Search for Another Location

Airport or City:

Trip Planner

Search our weather history database for the weather conditions in past years. The results will help you decide how hot, cold, wet, or windy it might be!

Date:

Astronomy

Dec. 27, 2013 Rise Set
Actual Time 7:28 AM CST 4:15 PM CST
Civil Twilight 6:54 AM CST 4:49 PM CST
Nautical Twilight 6:17 AM CST 5:26 PM CST
Astronomical Twilight 5:41 AM CST 6:02 PM CST
Moon 1:50 AM CST (12/27) 12:33 PM CST (12/27)
Length of Visible Light 9h 54m
Length of Day
8h 46m
Waning Crescent, 28% of the Moon is Illuminated
Dec 27
Waning Crescent
Jan 1
New
Jan 7
First Quarter
Jan 15
Full
Jan 23
Last Quarter

Hourly Weather History & Observations

Time (CST) Temp. Windchill Dew Point Humidity Pressure Visibility Wind Dir Wind Speed Gust Speed Precip Events Conditions
12:15 AM 14.0 °F - 12.2 °F 93% 30.19 in 10.0 mi Calm Calm - N/A   Overcast
12:35 AM 14.0 °F - 12.2 °F 93% 30.19 in 10.0 mi Calm Calm - N/A   Overcast
12:55 AM 14.0 °F - 12.2 °F 93% 30.19 in 10.0 mi Calm Calm - N/A   Overcast
1:15 AM 14.0 °F - 10.4 °F 86% 30.19 in 10.0 mi Calm Calm - N/A   Overcast
1:35 AM 14.0 °F - 8.6 °F 79% 30.19 in 10.0 mi Calm Calm - N/A   Overcast
1:55 AM 15.8 °F - 6.8 °F 68% 30.19 in 10.0 mi Calm Calm - N/A   Overcast
2:15 AM 14.0 °F - 8.6 °F 79% 30.20 in 10.0 mi Calm Calm - N/A   Overcast
2:35 AM 14.0 °F - 8.6 °F 79% 30.20 in 7.0 mi Calm Calm - N/A   Overcast
2:55 AM 14.0 °F - 10.4 °F 86% 30.19 in 8.0 mi Calm Calm - N/A   Overcast
3:15 AM 14.0 °F - 10.4 °F 86% 30.19 in 9.0 mi Calm Calm - N/A   Overcast
3:35 AM 14.0 °F - 10.4 °F 86% 30.19 in 10.0 mi Calm Calm - N/A   Overcast
3:55 AM 14.0 °F - 10.4 °F 86% 30.20 in 9.0 mi Calm Calm - N/A   Overcast
4:15 AM 14.0 °F - 10.4 °F 86% 30.19 in 9.0 mi Calm Calm - N/A   Overcast
4:35 AM 14.0 °F - 10.4 °F 86% 30.19 in 9.0 mi Calm Calm - N/A   Overcast
4:55 AM 15.8 °F - 10.4 °F 79% 30.19 in 9.0 mi Calm Calm - N/A   Overcast
5:15 AM 15.8 °F - 10.4 °F 79% 30.19 in 9.0 mi Calm Calm - N/A   Overcast
5:35 AM 14.0 °F - 8.6 °F 79% 30.19 in 9.0 mi Calm Calm - N/A   Overcast
5:55 AM 14.0 °F - 10.4 °F 86% 30.19 in 9.0 mi Calm Calm - N/A   Overcast
6:15 AM 14.0 °F 8.2 °F 10.4 °F 86% 30.18 in 9.0 mi South 3.5 mph - N/A   Overcast
6:35 AM 15.8 °F 8.6 °F 10.4 °F 79% 30.18 in 9.0 mi SSW 4.6 mph - N/A   Overcast
6:55 AM 15.8 °F 7.2 °F 10.4 °F 79% 30.17 in 8.0 mi SSW 5.8 mph - N/A   Overcast
7:15 AM 15.8 °F 7.2 °F 12.2 °F 86% 30.17 in 6.0 mi SW 5.8 mph - N/A   Overcast
7:35 AM 15.8 °F 10.2 °F 14.0 °F 93% 30.18 in 5.0 mi WSW 3.5 mph - N/A   Overcast
7:55 AM 15.8 °F 8.6 °F 14.0 °F 93% 30.18 in 5.0 mi SW 4.6 mph - N/A   Overcast
8:15 AM 17.6 °F 9.3 °F 15.8 °F 93% 30.18 in 5.0 mi SW 5.8 mph - N/A   Overcast
8:35 AM 17.6 °F 9.3 °F 15.8 °F 93% 30.19 in 7.0 mi SW 5.8 mph - N/A   Mostly Cloudy
8:55 AM 17.6 °F 8.2 °F 15.8 °F 93% 30.19 in 7.0 mi SW 6.9 mph - N/A   Scattered Clouds
9:15 AM 19.4 °F 8.6 °F 15.8 °F 86% 30.18 in 8.0 mi SW 9.2 mph - N/A   Partly Cloudy
9:35 AM 19.4 °F 9.5 °F 17.6 °F 93% 30.18 in 7.0 mi SW 8.1 mph - N/A   Partly Cloudy
9:55 AM 19.4 °F 8.6 °F 17.6 °F 93% 30.17 in 7.0 mi SW 9.2 mph - N/A   Clear
10:15 AM 21.2 °F 10.1 °F 15.8 °F 80% 30.16 in 7.0 mi SW 10.4 mph - N/A   Clear
10:35 AM 21.2 °F 10.1 °F 17.6 °F 86% 30.14 in 7.0 mi SSW 10.4 mph - N/A   Partly Cloudy
10:55 AM 21.2 °F 11.7 °F 19.4 °F 93% 30.13 in 7.0 mi SW 8.1 mph - N/A   Mostly Cloudy
11:15 AM 21.2 °F 9.5 °F 19.4 °F 93% 30.10 in 5.0 mi SW 11.5 mph - N/A   Mostly Cloudy
11:35 AM 21.2 °F 10.9 °F 17.6 °F 86% 30.09 in 5.0 mi SSW 9.2 mph - N/A   Overcast
11:55 AM 23.0 °F 10.1 °F 17.6 °F 80% 30.07 in 7.0 mi SW 15.0 mph - N/A   Scattered Clouds
12:15 PM 24.8 °F 12.9 °F 19.4 °F 80% 30.06 in 7.0 mi SW 13.8 mph - N/A   Clear
12:35 PM 24.8 °F 12.4 °F 19.4 °F 80% 30.04 in 6.0 mi SW 15.0 mph 19.6 mph N/A   Clear
12:55 PM 24.8 °F 12.4 °F 19.4 °F 80% 30.03 in 6.0 mi SW 15.0 mph 18.4 mph N/A   Clear
1:15 PM 24.8 °F 14.0 °F 19.4 °F 80% 30.03 in 5.0 mi SW 11.5 mph 21.9 mph N/A   Clear
1:35 PM 26.6 °F 15.7 °F 21.2 °F 80% 30.01 in 5.0 mi SW 12.7 mph 18.4 mph N/A   Mostly Cloudy
1:55 PM 26.6 °F 16.8 °F 21.2 °F 80% 29.98 in 5.0 mi SSW 10.4 mph - N/A   Overcast
2:15 PM 26.6 °F 14.7 °F 21.2 °F 80% 29.97 in 5.0 mi SSW 15.0 mph - N/A   Mostly Cloudy
2:35 PM 26.6 °F 16.2 °F 23.0 °F 86% 29.95 in 5.0 mi SW 11.5 mph - N/A   Clear
2:55 PM 26.6 °F 15.7 °F 23.0 °F 86% 29.94 in 6.0 mi SW 12.7 mph 20.7 mph N/A   Mostly Cloudy
3:15 PM 28.4 °F 15.8 °F 23.0 °F 80% 29.92 in 6.0 mi SW 18.4 mph 25.3 mph N/A   Overcast
3:35 PM 28.4 °F 15.8 °F 21.2 °F 74% 29.90 in 6.0 mi SW 18.4 mph 24.2 mph N/A   Overcast
3:55 PM 28.4 °F 17.5 °F 26.6 °F 93% 29.90 in 6.0 mi SW 13.8 mph - N/A   Overcast
4:15 PM 30.2 °F 18.9 °F 24.8 °F 80% 29.88 in 7.0 mi SW 16.1 mph 20.7 mph N/A   Overcast
4:35 PM 30.2 °F 18.9 °F 24.8 °F 80% 29.86 in 7.0 mi SW 16.1 mph 20.7 mph N/A   Overcast
4:55 PM 30.2 °F 19.3 °F 26.6 °F 86% 29.86 in 10.0 mi SW 15.0 mph 25.3 mph N/A   Overcast
5:15 PM 30.2 °F 19.8 °F 24.8 °F 80% 29.86 in 10.0 mi WSW 13.8 mph 23.0 mph N/A   Overcast
5:35 PM 30.2 °F 21.3 °F 26.6 °F 86% 29.85 in 10.0 mi SW 10.4 mph 17.3 mph N/A   Overcast
5:55 PM 30.2 °F 21.9 °F 26.6 °F 86% 29.85 in 10.0 mi WSW 9.2 mph - N/A   Mostly Cloudy
6:15 PM 30.2 °F 22.6 °F 26.6 °F 86% 29.85 in 10.0 mi WSW 8.1 mph - N/A   Clear
6:35 PM 30.2 °F 23.4 °F 26.6 °F 86% 29.85 in 10.0 mi WSW 6.9 mph - N/A   Clear
6:55 PM 30.2 °F 22.6 °F 26.6 °F 86% 29.86 in 10.0 mi WSW 8.1 mph - N/A   Clear
7:15 PM 30.2 °F 23.4 °F 24.8 °F 80% 29.86 in 10.0 mi WSW 6.9 mph - N/A   Clear
7:35 PM 30.2 °F 24.3 °F 24.8 °F 80% 29.86 in 10.0 mi West 5.8 mph - N/A   Clear
7:55 PM 30.2 °F 25.4 °F 24.8 °F 80% 29.86 in 10.0 mi West 4.6 mph - N/A   Clear
8:15 PM 30.2 °F 25.4 °F 24.8 °F 80% 29.87 in 10.0 mi West 4.6 mph - N/A   Clear
8:35 PM 30.2 °F 26.7 °F 24.8 °F 80% 29.87 in 10.0 mi West 3.5 mph - N/A   Clear
8:55 PM 30.2 °F 26.7 °F 26.6 °F 86% 29.87 in 10.0 mi West 3.5 mph - N/A   Clear
9:15 PM 30.2 °F 24.3 °F 26.6 °F 86% 29.88 in 10.0 mi West 5.8 mph - N/A   Clear
9:35 PM 30.2 °F 25.4 °F 24.8 °F 80% 29.89 in 10.0 mi West 4.6 mph - N/A   Scattered Clouds
9:55 PM 30.2 °F 24.3 °F 26.6 °F 86% 29.90 in 10.0 mi West 5.8 mph - N/A   Overcast
10:15 PM 30.2 °F 23.4 °F 26.6 °F 86% 29.90 in 10.0 mi West 6.9 mph - N/A   Overcast
10:35 PM 32.0 °F 26.4 °F 26.6 °F 80% 29.90 in 10.0 mi West 5.8 mph - N/A   Overcast
10:55 PM 32.0 °F 27.5 °F 28.4 °F 87% 29.91 in 10.0 mi WSW 4.6 mph - N/A   Overcast
11:15 PM 32.0 °F 27.5 °F 26.6 °F 80% 29.92 in 10.0 mi WSW 4.6 mph - N/A   Overcast
11:35 PM 32.0 °F 27.5 °F 26.6 °F 80% 29.91 in 10.0 mi WSW 4.6 mph - N/A   Overcast
11:55 PM 32.0 °F 27.5 °F 26.6 °F 80% 29.91 in 10.0 mi WSW 4.6 mph - N/A   Overcast